Location: Monteux
(44.0348°N, 4.9972°E)
Time: 20:58:33
(UTC+00:00)

Envisat - Visible Passes

Search period start: 21 September 2021 00:00
Search period end: 01 October 2021 00:00
Orbit: 764 x 766 km, 98.2° (Epoch: 21 September)

Date Brightness Start Highest point End Pass type
(mag) Time Alt. Az. Time Alt. Az. Time Alt. Az.
21 Sep 3.4 04:47:58 10° NNE 04:53:04 72° ESE 04:58:08 10° S visible
22 Sep 4.9 04:11:30 10° NNE 04:16:05 33° E 04:20:38 10° SSE visible
23 Sep 5.9 03:35:55 10° NE 03:38:53 15° E 03:41:52 10° SE visible
24 Sep 3.8 04:36:31 10° NNE 04:41:32 57° E 04:46:31 10° S visible
25 Sep 5.2 04:00:14 10° NE 04:04:29 26° E 04:08:43 10° SSE visible
26 Sep 6.1 03:25:18 10° ENE 03:27:14 12° E 03:29:09 10° ESE visible
26 Sep 3.0 05:01:47 10° NNE 05:06:54 84° WNW 05:11:58 10° SSW visible
27 Sep 4.2 04:25:06 10° NNE 04:29:59 45° E 04:34:50 10° S visible
28 Sep 5.6 03:49:03 10° NE 03:52:53 21° E 03:56:41 10° SE visible
29 Sep 3.2 04:50:17 10° NNE 04:55:23 78° ESE 05:00:28 10° S visible
30 Sep 4.7 04:13:45 10° NNE 04:18:25 35° E 04:23:04 10° SSE visible
